User: anonymous   Login
Location: Waning Moon II Observatory
(30.3730°N, 89.7620°W)
Time: 10:08:49
(UTC-05:00)
Language:

Meteor 1-21 - Orbit

View from above orbital plane
View from above orbital plane
View from above satellite
View from above satellite

Ground track
Ground track

The orbit data is extracted from the following two-line orbital elements,

1 07714U 75023A   14302.93241166  .00000280  00000-0  15683-3 0  9275
2 07714 081.2132 047.5726 0034967 083.0766 054.7631 14.07834651349931
Epoch (UTC): 29 October 2014 22:22:40
Eccentricity: 0.0034967
inclination: 81.2132°
perigee height: 841 km
apogee height: 892 km
right ascension of ascending node: 47.5726°
argument of perigee: 83.0766°
revolutions per day: 14.07834651
mean anomaly at epoch: 54.7631°
orbit number at epoch: 34993

The dashed part of the orbit path shows where the satellite is in the earth's shadow,  

DLR